This is the latest recevied weather packets stored in our database for station/object K9RCP-24. If no packets are shown the sender has not sent any weather packets the latest 10 day(s).
| Time | Temp. | Humidity | Pressure | Rain* | Wind** | Luminosity | Snow |
|---|---|---|---|---|---|---|---|
| 1777593139 | 27.78° C | 29% | 1019 hPa | 0 mm | - | - | - |
| 1777592763 | 27.22° C | 29% | 1018.6 hPa | 0 mm | - | - | - |
| 1777591590 | 26.67° C | 30% | 1019.3 hPa | 0 mm | - | - | - |
| 1777590958 | 26.67° C | 31% | 1019.3 hPa | 0 mm | - | - | - |
| 1777590656 | 27.22° C | 30% | 1019.6 hPa | 0 mm | - | - | - |
| 1777590148 | 27.22° C | 31% | 1020 hPa | 0 mm | - | - | - |
| 1777589770 | 27.22° C | 30% | 1020 hPa | 0 mm | - | - | - |
| 1777588309 | 26.67° C | 32% | 1020 hPa | 0 mm | - | - | - |
| 1777587018 | 26.67° C | 33% | 1020.3 hPa | 0 mm | - | - | - |
| 1777586892 | 26.67° C | 33% | 1020.3 hPa | 0 mm | - | - | - |
| 1777586511 | 26.67° C | 33% | 1020.7 hPa | 0 mm | - | - | - |
| 1777586385 | 26.11° C | 33% | 1020.7 hPa | 0 mm | - | - | - |
| 1777586131 | 26.67° C | 32% | 1020.7 hPa | 0 mm | - | - | - |
| 1777585348 | 26.67° C | 33% | 1020.7 hPa | 0 mm | - | - | - |
| 1777584665 | 26.11° C | 32% | 1020.7 hPa | 0 mm | - | - | - |
| 1777583857 | 25.56° C | 35% | 1020.7 hPa | 0 mm | - | - | - |
| 1777583609 | 25.56° C | 35% | 1021 hPa | 0 mm | - | - | - |
| 1777582803 | 25° C | 37% | 1021 hPa | 6.35 mm | - | - | - |
| 1777582680 | 25° C | 37% | 1021 hPa | 6.35 mm | - | - | - |
| 1777581993 | 24.44° C | 37% | 1021.3 hPa | 6.35 mm | - | - | - |
| 1777581741 | 25° C | 37% | 1021.3 hPa | 6.35 mm | - | - | - |
| 1777581280 | 24.44° C | 37% | 1021 hPa | 6.35 mm | - | - | - |
| 1777580651 | 23.89° C | 39% | 1021.3 hPa | 6.35 mm | - | - | - |
| 1777580528 | 23.89° C | 38% | 1021.3 hPa | 6.35 mm | - | - | - |
| 1777580401 | 23.89° C | 39% | 1021.3 hPa | 6.35 mm | - | - | - |
* Rain latest hour (hover to see other rain measurements)
** Current wind speed in m/s (hover to see current wind gust speed)